FW5485 Weather Reports


Display with metric or nautical units.
time (UTC)temp
F
wind
direction
speed
MPH
gust
MPH
rain 1hr
in
rain 24hr
in
rain mn
in
humidity
%
barometer
mb
20260504081016 47 0.0 0.0 0.00 0.00 0.00 83 1016.0
20260504050016 46 0.0 0.0 0.00 0.00 0.00 76 1016.2
20260504045016 46 0.0 0.0 0.00 0.00 0.00 76 1016.2
20260504044016 46 0.0 0.0 0.00 0.00 0.00 75 1016.1
20260504043015 46 0.0 0.0 0.00 0.00 0.00 76 1016.2
20260504042015 46 0.0 0.0 0.00 0.00 0.00 76 1016.0
20260504041016 46 0.0 0.0 0.00 0.00 0.00 76 1016.0
20260504040035 46 0.0 0.0 0.00 0.00 0.00 75 1015.9
20260504035035 46 0.0 0.0 0.00 0.00 0.00 76 1016.0
20260504034015 46 0.0 0.0 0.00 0.00 0.00 75 1015.9
20260504033015 46 0.0 0.0 0.00 0.00 0.00 76 1015.8
20260504032015 45 0.0 0.0 0.00 0.00 0.00 76 1015.7
20260504031015 45 0.0 0.0 0.00 0.00 0.00 76 1015.8
20260504030015 45 0.0 0.0 0.00 0.00 0.00 75 1015.8
20260504025016 45 0.0 0.0 0.00 0.00 0.00 76 1015.7
20260504024015 44 0.0 0.0 0.00 0.00 0.00 74 1015.7
20260504023035 45 0.0 0.0 0.00 0.00 0.00 74 1015.6
20260504022015 45 0.0 0.0 0.00 0.00 0.00 73 1015.6
20260504021037 45 0.0 0.0 0.00 0.00 0.00 72 1015.5
20260504020015 46 0.0 0.0 0.00 0.00 0.00 72 1015.5
20260504015015 46 0.0 0.0 0.00 0.00 0.00 72 1015.2
20260504014015 47 0.0 0.0 0.00 0.00 0.00 70 1015.1
20260504013015 47 0.0 0.0 0.00 0.00 0.00 69 1015.1
20260504012015 48 0.0 0.0 0.00 0.00 0.00 71 1014.8
20260504011015 49 0.0 0.0 0.00 0.00 0.00 67 1014.9
20260504010017 49 0.0 0.0 0.00 0.00 0.00 66 1015.0
20260504005017 50 0.0 0.0 0.00 0.00 0.00 66 1014.9
20260504004037 51 0.0 0.0 0.00 0.00 0.00 64 1014.8
20260504003017 52 0.0 0.0 0.00 0.00 0.00 64 1014.8
20260504002017 54 0.0 0.0 0.00 0.00 0.00 61 1014.7
20260504001017 55 0.0 0.0 0.00 0.00 0.00 59 1014.8
20260504000017 56 0.0 0.0 0.00 0.00 0.00 59 1014.6
20260503235017 58 0.0 0.0 0.00 0.00 0.00 51 1014.6
20260503234017 59 0.0 0.0 0.00 0.00 0.00 47 1014.5
20260503233017 60 0.0 0.0 0.00 0.00 0.00 45 1014.5
20260503232016 61 0.0 3.0 0.00 0.00 0.00 41 1014.4
20260503231016 61 0.0 3.0 0.00 0.00 0.00 43 1014.3
20260503230036 62 0.0 0.0 0.00 0.00 0.00 37 1014.4
20260503225017 62 0.0 1.0 0.00 0.00 0.00 34 1014.4
20260503224037 63 0 1.0 3.0 0.00 0.00 0.00 36 1014.4
20260503223016 63 0 1.0 4.0 0.00 0.00 0.00 34 1014.4
20260503222016 64 0 1.0 4.0 0.00 0.00 0.00 34 1014.6
20260503221017 64 0 1.0 6.0 0.00 0.00 0.00 38 1014.6
20260503220016 65 0.0 3.0 0.00 0.00 0.00 33 1014.7
20260503215016 66 0.0 2.0 0.00 0.00 0.00 33 1014.7
20260503214016 66 0.0 2.0 0.00 0.00 0.00 32 1014.8
20260503213016 66 0 1.0 3.0 0.00 0.00 0.00 32 1014.9
20260503212016 66 0 1.0 3.0 0.00 0.00 0.00 32 1014.9
20260503211016 66 0 1.0 3.0 0.00 0.00 0.00 33 1015.0
20260503210016 66 0 1.0 2.0 0.00 0.00 0.00 31 1015.1
20260503205016 65 0 2.0 4.0 0.00 0.00 0.00 32 1015.1
20260503204016 65 0 2.0 5.0 0.00 0.00 0.00 34 1015.2
20260503203016 65 0 3.0 8.0 0.00 0.00 0.00 36 1015.2
20260503202016 65 0 1.0 4.0 0.00 0.00 0.00 38 1015.4
20260503201016 65 0 3.0 9.0 0.00 0.00 0.00 34 1015.5
20260503200036 65 0 2.0 6.0 0.00 0.00 0.00 32 1015.7
20260503195016 65 0 2.0 5.0 0.00 0.00 0.00 34 1015.9
20260503194016 63 0 2.0 5.0 0.00 0.00 0.00 35 1016.0
20260503193016 63 0 2.0 5.0 0.00 0.00 0.00 33 1016.2
20260503192016 64 0 2.0 5.0 0.00 0.00 0.00 33 1016.6
20260503191016 64 0 3.0 6.0 0.00 0.00 0.00 35 1016.7
20260503190016 64 0 1.0 5.0 0.00 0.00 0.00 33 1016.7
20260503185016 65 0 2.0 4.0 0.00 0.00 0.00 33 1017.0
20260503184016 64 0 2.0 5.0 0.00 0.00 0.00 36 1017.1
20260503183016 63 0 2.0 5.0 0.00 0.00 0.00 38 1017.2
20260503182036 63 0 2.0 5.0 0.00 0.00 0.00 38 1017.3
20260503181016 62 0 2.0 8.0 0.00 0.00 0.00 33 1017.4
20260503180016 62 0 2.0 6.0 0.00 0.00 0.00 32 1017.5
20260503175016 61 0 3.0 8.0 0.00 0.00 0.00 35 1017.6
20260503174036 62 0 2.0 6.0 0.00 0.00 0.00 35 1017.7
20260503173016 61 0 3.0 12.0 0.00 0.00 0.00 36 1017.8
20260503172036 61 0 2.0 5.0 0.00 0.00 0.00 33 1017.8
20260503171036 61 0 4.0 10.0 0.00 0.00 0.00 38 1017.8